Regional Weather Roundup
Issued by NWS Boston, MA

Current Version | Previous Version | Text Only | Print | Product List | Glossary On
Versions: 1 2 3 4 5 6 7 8 9 10 11 12 13 14 15 16 17 18 19 20 21 22 23 24 25 26 27 28 29 30 31 32 33 34 35 36 37 38 39 40 41 42 43 44 45 46 47 48 49 50
000 ASUS41 KBOX 181610 RWRBOX REGIONAL WEATHER ROUNDUP NATIONAL WEATHER SERVICE BOSTON/NORTON MA 1200 PM EDT SAT AUG 18 2018 NOTE: "FAIR" INDICATES FEW OR NO CLOUDS BELOW 12,000 FEET WITH NO SIGNIFICANT WEATHER AND/OR OBSTRUCTIONS TO VISIBILITY. MAZALL-181700- EASTERN MASSACHUSETTS CITY SKY/WX TMP DP RH WIND PRES REMARKS BOSTON PTSUNNY 84 70 62 W9 29.78F BEVERLY FAIR 81 73 76 NW12 29.78S LAWRENCE PTSUNNY 85 72 65 SW9 29.79F HX 91 BEDFORD PTSUNNY 81 72 74 SW8 29.78F BLUE HILL N/A 80 72 76 W8 29.81F NORWOOD FAIR 85 74 69 W9 29.78F HX 92 MARSHFIELD FAIR 86 73 66 VRB7G15 29.78F HX 93 PLYMOUTH FAIR 85 73 67 SW13 29.80F HX 91 TAUNTON FAIR 84 73 69 VRB7 29.79F HX 90 NEW BEDFORD FAIR 83 75 77 W9 29.79F HX 90 $$ MAZALL-181700- CAPE COD AND THE ISLANDS CITY SKY/WX TMP DP RH WIND PRES REMARKS FALMOUTH PTSUNNY 79 73 83 SW16 29.82F HYANNIS FAIR 81 75 82 SW17 29.80S CHATHAM CLOUDY 81 75 82 SW13G21 29.82S PROVINCETOWN FAIR 80 74 81 SW14 29.80F NANTUCKET FAIR 78 73 84 SW14 29.83F MARTHAS VNYRD PTSUNNY 80 75 84 SW10 29.82F $$ MAZALL-181700- CENTRAL AND WESTERN MASSACHUSETTS CITY SKY/WX TMP DP RH WIND PRES REMARKS WORCESTER FAIR 76 70 82 W10 29.84F FITCHBURG PTSUNNY 82 70 66 W8 29.80F ORANGE CLOUDY 81 70 69 N17G25 29.83S SPRINGFIELD PTSUNNY 80 72 75 S8 29.80F WESTFIELD FAIR 81 75 82 S6 29.81F NORTH ADAMS LGT RAIN 71 66 84 W7 29.85R PITTSFIELD FAIR 79 68 69 SW9 29.83F $$ RIZALL-181700- RHODE ISLAND CITY SKY/WX TMP DP RH WIND PRES REMARKS PROVIDENCE CLOUDY 81 73 76 W9 29.81F NEWPORT FAIR 78 74 87 SW7 29.81F BLOCK ISLAND PTSUNNY 77 73 87 SW14 29.83F SMITHFIELD FAIR 78 72 81 W7 29.82F WESTERLY LGT RAIN 79 76 90 SW10 29.82F $$ CTZALL-181700- CONNECTICUT CITY SKY/WX TMP DP RH WIND PRES REMARKS BRADLEY INTL CLOUDY 80 73 79 S6 29.81F HARTFORD CLOUDY 79 73 82 CALM 29.80F BRIDGEPORT PTSUNNY 80 73 79 SW10 29.82F DANBURY FAIR 80 72 76 VRB5 29.84F GROTON CLOUDY 78 75 90 SW12 29.81F NEW HAVEN PTSUNNY 80 75 84 VRB7 29.82F CHESTER PTSUNNY 79 75 89 VRB3 29.84F MERIDEN CLOUDY 78 72 81 S8 29.82F WILLIMANTIC PTSUNNY 79 74 84 SW6 29.82F OXFORD FAIR 79 73 83 S6 29.85F $$ MEZ002-015-021-024-NHZ003-005-008-011-012-014-VTZ005-008-181700- NORTHERN NEW ENGLAND CITY SKY/WX TMP DP RH WIND PRES REMARKS PORTLAND ME CLOUDY 79 70 74 NW9 29.77S BANGOR ME CLOUDY 68 64 87 N13 29.78S CONCORD NH LGT RAIN 71 69 93 VRB3 29.80F MANCHESTER NH LGT RAIN 73 68 84 NW10 29.79R NASHUA NH CLOUDY 75 70 83 N7 29.80R PORTSMOUTH NH LGT RAIN 79 72 78 NW12 29.76 HAZE JAFFREY NH RAIN 71 70 96 VRB3 29.85 FOG KEENE NH CLOUDY N/A N/A N/A VRB7 29.83S BURLINGTON VT CLOUDY 66 60 81 N12 29.90S MT. WASHINGTON FOG 52 52 100 NW13 N/A VSB 1/16 $$ NYZ052-076-181700- EASTERN NEW YORK CITY SKY/WX TMP DP RH WIND PRES REMARKS ALBANY CLOUDY 72 66 81 N8 29.85R NEW YORK CITY PTSUNNY 84 69 60 W7 29.82F $$ ANZALL-181700- MARINE OBSERVATIONS STATION/POSITION TIME TEMP WIND PRES VSBY WAVE AIR SEA DIR/SP/G HT/PER (UTC) (F) (DEG/KT/KT) (MB) (MI) (FT/S) BOSTON BUOY 1550 74 71 260/ 6/ 6 1008.1F 1/ 3 BUZZARDS BAY 1600 73 230/ 15/ 16 1010.0F NANTUCKET SOUND 1550 77 76 220/ 14/ 17 1009.6F 2/ 3 MASS BAY-STELLWA 1504 72 70 240/ 10/ 12 1007.2S 1 7/8 2/ 4 ISLE OF SHOALS 1600 78 270/ 7/ 8 1007.6F S OF BLOCK IS NOT AVBL $$ ......................KEY......................... SKY/WX - SKY CONDITION/PRESENT WEATHER TMP - TEMPERATURE IN FAHRENHEIT DWPT - DEWPOINT IN FAHRENHEIT RH - RELATIVE HUMIDITY IN PERCENT WIND - DIRECTION AND SPEED IN MPH PRES - MEAN SEA LEVEL PRESSURE IN INCHES OF HG WCI - WIND CHILL INDEX VSB - VISIBILITY IN MILES HX - HEAT INDEX TC - TEMPERATURE IN CELSIUS VRB - VARIABLE WIND DIRECTION N/A - NOT AVAILABLE

USA.gov is the U.S. government's official web portal to all federal, state and local government web resources and services.